Regional Weather Roundup
Issued by NWS

Home | Current Version | Previous Version | Graphics & Text | Print | Product List | Glossary On
Versions: 1 2 3 4 5 6 7 8 9 10 11 12 13 14 15 16 17 18 19 20 21 22 23 24 25 26 27 28 29 30 31 32 33 34 35 36 37 38 39 40 41 42 43 44 45 46 47 48 49 50
000
ASUS44 KMEG 171510
RWRTN
TENNESSEE HOURLY STATE WEATHER ROUNDUP
NATIONAL WEATHER SERVICE MEMPHIS TN
900 AM CST SUN DEC 17 2017

TNZ002-004-019-021-049-052-054-088>092-171600-
WEST TENNESSEE

CITY           SKY/WX    TMP DP  RH WIND       PRES   REMARKS
MEMPHIS INTL   CLOUDY    43  41  93 E7        30.10F
NWS MEMPHIS      N/A     42 N/A N/A MISG        N/A
JACKSON        CLOUDY    42  41  96 VRB5      30.13R
DYERSBURG      LGT RAIN  43  41  93 E6        30.15F FOG
SOMERVILLE     PTSUNNY   43  41  93 CALM      30.11R
COVINGTON      CLOUDY    43  41  93 NE6       30.15R
UNION CITY     FOG       41  41 100 CALM      30.17R VSB 3/4
BOLIVAR        CLOUDY    43  41  93 E3        30.10R
PARIS          CLOUDY    41  39  93 S5        30.15R
HUNTINGDON     CLOUDY    41  39  93 CALM      30.14R
LEXINGTON      PTSUNNY   41  39  93 VRB7      30.13F
SELMER         PTSUNNY   41  39  93 SE5G17    30.11S
SAVANNAH       CLOUDY    43  41  93 SE7G14    30.10F
$$

TNZ008-025-027-028-033-062-065-066-171600-
NORTH MIDDLE TENNESSEE

CITY           SKY/WX    TMP DP  RH WIND       PRES   REMARKS
NASHVILLE      CLOUDY    42  38  85 S6        30.21F
PORTLAND       CLOUDY    41  37  87 S9        30.18F
CLARKSVILLE    LGT RAIN  41  36  82 SE12      30.16F
SMYRNA         LGT RAIN  40  38  93 SE8       30.23F WCI  34
COOKEVILLE     MOSUNNY   41  37  87 SE3       30.21F
GALLATIN       CLOUDY    41  39  93 SE6       30.23F
CROSSVILLE     CLOUDY    40  31  70 S3        30.23F
$$

TNZ061-075-076-078-094-096-097-171600-
SOUTH MIDDLE TENNESSEE

CITY           SKY/WX    TMP DP  RH WIND       PRES   REMARKS
FAYETTEVILLE   CLOUDY    43  37  81 CALM      30.23R
TULLAHOMA      MOSUNNY   41  36  81 E3        30.21F
WINCHESTER     PTSUNNY   45  36  70 E6        30.22F
MCMINNVILLE    MOSUNNY   41  36  81 CALM      30.23S
COLUMBIA       PTSUNNY   39  39 100 CALM      30.21F FOG
SHELBYVILLE    CLOUDY    41  37  87 S3        30.23F
$$

TNZ017-018-042-046-047-171600-
NORTHEAST TENNESSEE

CITY           SKY/WX    TMP DP  RH WIND       PRES   REMARKS
TRI CITIES     CLOUDY    34  30  85 CALM      30.27R
ELIZABETHTON   PTSUNNY   36  28  75 CALM      30.27R
$$

TNZ012-013-036-069-073-074-171600-
CENTRAL EAST TENNESSEE

CITY           SKY/WX    TMP DP  RH WIND       PRES   REMARKS
KNOXVILLE      CLOUDY    36  33  89 E3        30.28S
OAK RIDGE      CLOUDY    38  34  85 CALM      30.30S
DOWNTOWN KNOXV PTSUNNY   37  34  87 SE3       30.30R
GATLINBURG     PTSUNNY   34  30  86 CALM      30.29S
MORRISTOWN     PTSUNNY   36  30  80 CALM      30.26F
JACKSBORO      PTSUNNY   36  32  87 CALM      30.31S
$$

TNZ083-085-099-171600-
SOUTHEAST TENNESSEE

CITY           SKY/WX    TMP DP  RH WIND       PRES   REMARKS
CHATTANOOGA    CLOUDY    39  32  76 CALM      30.29S
DAYTON         CLOUDY    39  36  87 CALM      30.28S
$$

SKY/WX REPORTED AS FAIR MEANS FEW OR NO CLOUDS BELOW
12 THOUSAND FEET.





USA.gov is the U.S. government's official web portal to all federal, state and local government web resources and services.